Location: Ambrosina
(19.9365°S, 43.9833°W)
Time: 09:44:54
(UTC+00:00)

CZ-4B R/B - Pass Details

Date: 11 May 2021
Orbit: 809 x 881 km, 99.1° (Epoch: 22 June)

Event Time Altitude Azimuth Distance (km) Brightness Sun altitude
Rises 21:43:56 0° 174° (S) 3,350 6.1 -17.8°
Reaches altitude 10° 21:46:19 10° 178° (S) 2,410 5.4 -18.3°
Maximum altitude 21:51:30 55° 255° (WSW) 970 3.8 -19.5°
Drops below altitude 10° 21:56:39 10° 332° (NNW) 2,394 6.1 -20.7°
Sets 21:59:02 0° 336° (NNW) 3,326 6.8 -21.2°
